| time (UTC) | temp F | wind direction | speed MPH | gust MPH | rain 1hr in | rain 24hr in | rain mn in | humidity % | barometer mb |
| 20260506234906 | 63 | 344 | 10.0 | 20.0 | 0.02 | 0.13 | 0.13 | 90 | 1019.6 |
| 20260506234407 | 63 | 6 | 8.0 | 20.0 | 0.02 | 0.13 | 0.12 | 90 | 1019.7 |
| 20260506233906 | 63 | 6 | 12.0 | 18.0 | 0.00 | 0.11 | 0.10 | 90 | 1019.8 |
| 20260506232407 | 63 | 7 | 5.0 | 21.0 | 0.00 | 0.11 | 0.10 | 90 | 1019.8 |
| 20260506231906 | 63 | 14 | 8.0 | 15.0 | 0.00 | 0.11 | 0.10 | 89 | 1019.8 |
| 20260506231408 | 63 | 22 | 10.0 | 21.0 | 0.00 | 0.11 | 0.10 | 89 | 1020.1 |
| 20260506230906 | 63 | 10 | 9.0 | 16.0 | 0.00 | 0.11 | 0.10 | 89 | 1020.0 |
| 20260506230406 | 63 | 23 | 8.0 | 14.0 | 0.00 | 0.11 | 0.10 | 89 | 1020.0 |
| 20260506225906 | 63 | 6 | 5.0 | 15.0 | 0.00 | 0.11 | 0.10 | 89 | 1020.1 |
| 20260506224906 | 63 | 5 | 6.0 | 13.0 | 0.00 | 0.11 | 0.10 | 89 | 1020.1 |
| 20260506224406 | 63 | 6 | 9.0 | 14.0 | 0.00 | 0.11 | 0.10 | 89 | 1020.2 |
| 20260506223907 | 63 | 10 | 9.0 | 16.0 | 0.00 | 0.11 | 0.10 | 89 | 1020.2 |
| 20260506223407 | 63 | 3 | 11.0 | 17.0 | 0.00 | 0.11 | 0.10 | 89 | 1020.3 |
| 20260506222907 | 63 | 17 | 7.0 | 14.0 | 0.00 | 0.11 | 0.10 | 89 | 1020.3 |
| 20260506222408 | 63 | 6 | 9.0 | 22.0 | 0.00 | 0.11 | 0.10 | 89 | 1020.4 |
| 20260506220406 | 63 | 4 | 10.0 | 18.0 | 0.00 | 0.12 | 0.10 | 89 | 1020.5 |
| 20260506215906 | 63 | 359 | 8.0 | 16.0 | 0.00 | 0.12 | 0.10 | 89 | 1020.6 |
| 20260506215406 | 63 | 356 | 7.0 | 22.0 | 0.00 | 0.12 | 0.10 | 90 | 1020.6 |
| 20260506214906 | 63 | 6 | 9.0 | 15.0 | 0.00 | 0.12 | 0.10 | 90 | 1020.7 |
| 20260506214406 | 63 | 7 | 6.0 | 13.0 | 0.00 | 0.12 | 0.10 | 90 | 1020.8 |
| 20260506213906 | 63 | 0 | 6.0 | 14.0 | 0.00 | 0.12 | 0.10 | 90 | 1020.9 |
| 20260506212906 | 63 | 356 | 7.0 | 14.0 | 0.00 | 0.12 | 0.10 | 90 | 1021.0 |
| 20260506212406 | 63 | 11 | 7.0 | 14.0 | 0.00 | 0.12 | 0.10 | 90 | 1021.0 |
| 20260506211906 | 63 | 0 | 12.0 | 18.0 | 0.00 | 0.12 | 0.10 | 90 | 1021.1 |
| 20260506211407 | 63 | 12 | 9.0 | 20.0 | 0.00 | 0.12 | 0.10 | 90 | 1021.0 |
| 20260506210908 | 63 | 355 | 12.0 | 17.0 | 0.00 | 0.12 | 0.10 | 90 | 1021.1 |
| 20260506210407 | 63 | 7 | 9.0 | 18.0 | 0.00 | 0.12 | 0.10 | 90 | 1021.1 |
| 20260506205905 | 63 | 6 | 7.0 | 12.0 | 0.00 | 0.12 | 0.10 | 90 | 1021.1 |
| 20260506205407 | 63 | 16 | 6.0 | 14.0 | 0.00 | 0.12 | 0.10 | 90 | 1021.1 |
| 20260506204906 | 63 | 1 | 6.0 | 12.0 | 0.00 | 0.12 | 0.10 | 90 | 1021.2 |
| 20260506204406 | 63 | 16 | 7.0 | 16.0 | 0.00 | 0.12 | 0.10 | 90 | 1021.2 |
| 20260506203906 | 63 | 358 | 7.0 | 17.0 | 0.00 | 0.12 | 0.10 | 90 | 1021.3 |
| 20260506203406 | 63 | 8 | 5.0 | 16.0 | 0.00 | 0.12 | 0.10 | 90 | 1021.3 |
| 20260506202906 | 63 | 21 | 10.0 | 17.0 | 0.00 | 0.12 | 0.10 | 90 | 1021.2 |
| 20260506201906 | 63 | 14 | 6.0 | 12.0 | 0.00 | 0.12 | 0.10 | 90 | 1021.3 |
| 20260506201406 | 63 | 95 | 6.0 | 17.0 | 0.00 | 0.12 | 0.10 | 90 | 1021.3 |
| 20260506200906 | 63 | 13 | 8.0 | 15.0 | 0.00 | 0.12 | 0.10 | 90 | 1021.3 |
| 20260506194906 | 63 | 10 | 5.0 | 16.0 | 0.00 | 0.12 | 0.10 | 91 | 1021.3 |
| 20260506194406 | 63 | 0 | 8.0 | 17.0 | 0.00 | 0.12 | 0.10 | 91 | 1021.2 |
| 20260506193906 | 63 | 358 | 8.0 | 14.0 | 0.00 | 0.12 | 0.10 | 90 | 1021.3 |
| 20260506192906 | 62 | 13 | 10.0 | 20.0 | 0.00 | 0.12 | 0.10 | 90 | 1021.2 |
| 20260506191906 | 62 | 6 | 13.0 | 23.0 | 0.00 | 0.12 | 0.10 | 90 | 1021.2 |
| 20260506191406 | 62 | 2 | 12.0 | 18.0 | 0.00 | 0.12 | 0.10 | 91 | 1021.1 |
| 20260506190906 | 62 | 3 | 8.0 | 20.0 | 0.00 | 0.12 | 0.10 | 91 | 1021.1 |
| 20260506190405 | 62 | 6 | 9.0 | 18.0 | 0.00 | 0.12 | 0.10 | 90 | 1021.2 |
| 20260506185906 | 62 | 10 | 12.0 | 20.0 | 0.00 | 0.12 | 0.10 | 90 | 1021.1 |
| 20260506185406 | 62 | 9 | 7.0 | 23.0 | 0.00 | 0.12 | 0.10 | 90 | 1021.1 |
| 20260506184906 | 62 | 20 | 12.0 | 20.0 | 0.00 | 0.12 | 0.10 | 90 | 1021.1 |
| 20260506183405 | 62 | 9 | 9.0 | 14.0 | 0.00 | 0.12 | 0.10 | 90 | 1021.2 |
| 20260506182905 | 62 | 9 | 8.0 | 16.0 | 0.00 | 0.12 | 0.10 | 90 | 1021.3 |
| 20260506182406 | 61 | 8 | 9.0 | 15.0 | 0.00 | 0.12 | 0.10 | 90 | 1021.3 |
| 20260506181905 | 61 | 11 | 6.0 | 15.0 | 0.00 | 0.12 | 0.10 | 90 | 1021.4 |
| 20260506180905 | 61 | 13 | 5.0 | 12.0 | 0.00 | 0.12 | 0.10 | 91 | 1021.4 |
| 20260506180405 | 62 | 351 | 5.0 | 10.0 | 0.00 | 0.12 | 0.10 | 91 | 1021.4 |
| 20260506174905 | 62 | 13 | 9.0 | 16.0 | 0.00 | 0.12 | 0.10 | 91 | 1021.5 |
| 20260506173406 | 62 | 357 | 3.0 | 17.0 | 0.00 | 0.12 | 0.10 | 91 | 1021.4 |
| 20260506172906 | 62 | 8 | 6.0 | 13.0 | 0.00 | 0.12 | 0.10 | 91 | 1021.4 |
| 20260506172406 | 62 | 13 | 10.0 | 16.0 | 0.00 | 0.12 | 0.10 | 91 | 1021.4 |
| 20260506171905 | 62 | 13 | 9.0 | 15.0 | 0.00 | 0.12 | 0.10 | 91 | 1021.5 |
| 20260506171406 | 62 | 3 | 10.0 | 18.0 | 0.00 | 0.12 | 0.10 | 91 | 1021.6 |
| 20260506170906 | 62 | 5 | 12.0 | 22.0 | 0.00 | 0.12 | 0.10 | 91 | 1021.7 |
| 20260506170406 | 62 | 5 | 5.0 | 14.0 | 0.00 | 0.12 | 0.10 | 91 | 1021.6 |
| 20260506165906 | 62 | 4 | 10.0 | 15.0 | 0.00 | 0.12 | 0.10 | 91 | 1021.6 |
| 20260506165406 | 62 | 12 | 9.0 | 15.0 | 0.00 | 0.12 | 0.10 | 91 | 1021.7 |
| 20260506164906 | 62 | 14 | 7.0 | 15.0 | 0.01 | 0.12 | 0.10 | 91 | 1021.7 |
| 20260506163905 | 62 | 0 | 9.0 | 20.0 | 0.02 | 0.12 | 0.10 | 91 | 1021.8 |
| 20260506163406 | 62 | 12 | 11.0 | 15.0 | 0.03 | 0.12 | 0.10 | 91 | 1021.9 |
| 20260506162905 | 62 | 3 | 7.0 | 17.0 | 0.04 | 0.12 | 0.10 | 91 | 1021.9 |
| 20260506162406 | 62 | 11 | 6.0 | 17.0 | 0.05 | 0.12 | 0.10 | 91 | 1022.0 |
| 20260506161906 | 62 | 17 | 6.0 | 14.0 | 0.06 | 0.12 | 0.10 | 90 | 1022.0 |
| 20260506161406 | 62 | 1 | 10.0 | 18.0 | 0.09 | 0.12 | 0.10 | 90 | 1022.1 |
| 20260506160906 | 61 | 356 | 4.0 | 16.0 | 0.09 | 0.12 | 0.10 | 91 | 1022.2 |
| 20260506160405 | 61 | 2 | 7.0 | 17.0 | 0.09 | 0.12 | 0.10 | 90 | 1022.2 |
| 20260506155906 | 61 | 17 | 6.0 | 15.0 | 0.10 | 0.12 | 0.10 | 90 | 1022.3 |
| 20260506155405 | 61 | 16 | 8.0 | 13.0 | 0.10 | 0.12 | 0.10 | 90 | 1022.3 |
| 20260506154405 | 62 | 24 | 9.0 | 16.0 | 0.09 | 0.11 | 0.09 | 90 | 1022.5 |
| 20260506153905 | 62 | 355 | 10.0 | 20.0 | 0.08 | 0.09 | 0.08 | 90 | 1022.5 |
| 20260506153406 | 62 | 350 | 4.0 | 12.0 | 0.07 | 0.09 | 0.07 | 90 | 1022.6 |
| 20260506152906 | 62 | 358 | 2.0 | 12.0 | 0.06 | 0.08 | 0.06 | 90 | 1022.6 |
| 20260506152405 | 62 | 6 | 7.0 | 17.0 | 0.06 | 0.07 | 0.06 | 90 | 1022.7 |
| 20260506151905 | 62 | 13 | 7.0 | 13.0 | 0.04 | 0.06 | 0.04 | 90 | 1022.8 |
| 20260506150905 | 62 | 12 | 6.0 | 12.0 | 0.01 | 0.02 | 0.01 | 90 | 1022.8 |
| 20260506150405 | 62 | 13 | 3.0 | 10.0 | 0.01 | 0.02 | 0.01 | 90 | 1022.9 |
| 20260506145906 | 62 | 18 | 5.0 | 13.0 | 0.00 | 0.02 | 0.00 | 90 | 1023.1 |
| 20260506145406 | 62 | 25 | 7.0 | 12.0 | 0.00 | 0.02 | 0.00 | 90 | 1023.2 |
| 20260506144906 | 62 | 23 | 2.0 | 9.0 | 0.00 | 0.02 | 0.00 | 89 | 1023.3 |
| 20260506144405 | 62 | 4 | 3.0 | 8.0 | 0.00 | 0.02 | 0.00 | 89 | 1023.4 |
| 20260506143905 | 62 | 6 | 7.0 | 10.0 | 0.00 | 0.02 | 0.00 | 89 | 1023.5 |
| 20260506143406 | 62 | 0 | 2.0 | 5.0 | 0.00 | 0.02 | 0.00 | 89 | 1023.6 |
| 20260506142905 | 62 | 19 | 4.0 | 9.0 | 0.00 | 0.02 | 0.00 | 89 | 1023.6 |
| 20260506142406 | 62 | 4 | 4.0 | 9.0 | 0.00 | 0.02 | 0.00 | 89 | 1023.8 |
| 20260506141906 | 62 | 18 | 5.0 | 12.0 | 0.00 | 0.02 | 0.00 | 89 | 1023.8 |
| 20260506141406 | 62 | 14 | 4.0 | 8.0 | 0.00 | 0.02 | 0.00 | 89 | 1023.9 |
| 20260506140906 | 62 | 21 | 4.0 | 12.0 | 0.00 | 0.02 | 0.00 | 89 | 1023.9 |
| 20260506135905 | 62 | 25 | 3.0 | 13.0 | 0.00 | 0.02 | 0.00 | 89 | 1024.0 |
| 20260506135406 | 62 | 29 | 5.0 | 10.0 | 0.00 | 0.02 | 0.00 | 89 | 1024.1 |
| 20260506134906 | 62 | 7 | 5.0 | 9.0 | 0.00 | 0.02 | 0.00 | 89 | 1024.1 |
| 20260506133406 | 62 | 4 | 1.0 | 5.0 | 0.00 | 0.02 | 0.00 | 89 | 1024.2 |
| 20260506132906 | 62 | 5 | 3.0 | 6.0 | 0.00 | 0.02 | 0.00 | 89 | 1024.2 |
| 20260506132406 | 62 | 8 | 2.0 | 8.0 | 0.00 | 0.02 | 0.00 | 89 | 1024.3 |
| 20260506131906 | 62 | 14 | 3.0 | 9.0 | 0.00 | 0.02 | 0.00 | 89 | 1024.3 |
| 20260506130906 | 62 | 358 | 1.0 | 2.0 | 0.00 | 0.02 | 0.00 | 89 | 1024.4 |
| 20260506130405 | 62 | 16 | 0.0 | 1.0 | 0.00 | 0.02 | 0.00 | 89 | 1024.4 |
| 20260506125905 | 62 | 16 | 1.0 | 2.0 | 0.01 | 0.02 | 0.00 | 89 | 1024.4 |
| 20260506125405 | 62 | 1 | 2.0 | 3.0 | 0.01 | 0.02 | 0.00 | 89 | 1024.5 |
| 20260506124405 | 62 | 338 | 0.0 | 1.0 | 0.01 | 0.02 | 0.00 | 89 | 1024.5 |
| 20260506123906 | 62 | 349 | 0.0 | 1.0 | 0.01 | 0.02 | 0.00 | 89 | 1024.5 |
| 20260506123406 | 62 | 346 | 1.0 | 3.0 | 0.01 | 0.02 | 0.00 | 89 | 1024.6 |
| 20260506122406 | 62 | 345 | 2.0 | 3.0 | 0.01 | 0.02 | 0.00 | 89 | 1024.6 |
| 20260506121905 | 62 | 16 | 2.0 | 3.0 | 0.01 | 0.02 | 0.00 | 89 | 1024.7 |
| 20260506121406 | 62 | 349 | 0.0 | 3.0 | 0.01 | 0.02 | 0.00 | 89 | 1024.7 |
| 20260506120905 | 62 | 0 | 3.0 | 5.0 | 0.01 | 0.02 | 0.00 | 90 | 1024.7 |
| 20260506120405 | 62 | 13 | 3.0 | 7.0 | 0.01 | 0.02 | 0.00 | 90 | 1024.7 |
| 20260506115405 | 62 | 356 | 1.0 | 9.0 | 0.00 | 0.01 | 0.01 | 90 | 1024.7 |
| 20260506114906 | 62 | 24 | 1.0 | 3.0 | 0.00 | 0.01 | 0.01 | 90 | 1024.7 |
| 20260506114405 | 62 | 22 | 1.0 | 3.0 | 0.00 | 0.01 | 0.01 | 90 | 1024.8 |
| 20260506113905 | 62 | 0 | 2.0 | 3.0 | 0.00 | 0.01 | 0.01 | 90 | 1024.8 |
| 20260506113406 | 62 | 354 | 1.0 | 5.0 | 0.00 | 0.01 | 0.01 | 90 | 1024.9 |
| 20260506112405 | 62 | 5 | 1.0 | 3.0 | 0.00 | 0.01 | 0.01 | 90 | 1025.0 |
| 20260506111905 | 62 | 355 | 2.0 | 3.0 | 0.00 | 0.01 | 0.01 | 90 | 1025.0 |
| 20260506111407 | 62 | 8 | 1.0 | 3.0 | 0.00 | 0.01 | 0.01 | 90 | 1025.0 |
| 20260506110906 | 62 | 9 | 1.0 | 2.0 | 0.00 | 0.01 | 0.01 | 89 | 1025.0 |
| 20260506110406 | 62 | 18 | 0.0 | 0.0 | 0.00 | 0.01 | 0.01 | 89 | 1025.1 |
| 20260506105407 | 62 | 18 | 0.0 | 2.0 | 0.00 | 0.01 | 0.01 | 89 | 1025.1 |
| 20260506104907 | 62 | 10 | 0.0 | 1.0 | 0.00 | 0.01 | 0.01 | 89 | 1025.2 |
| 20260506104406 | 62 | 10 | 1.0 | 3.0 | 0.00 | 0.01 | 0.01 | 89 | 1025.2 |
| 20260506103907 | 62 | 4 | 0.0 | 2.0 | 0.00 | 0.01 | 0.01 | 89 | 1025.2 |
| 20260506103405 | 62 | 4 | 0.0 | 1.0 | 0.00 | 0.01 | 0.01 | 89 | 1025.2 |
| 20260506102907 | 62 | 4 | 0.0 | 3.0 | 0.00 | 0.01 | 0.01 | 89 | 1025.3 |
| 20260506102406 | 62 | 356 | 0.0 | 3.0 | 0.00 | 0.01 | 0.01 | 89 | 1025.3 |
| 20260506101908 | 62 | 352 | 0.0 | 2.0 | 0.00 | 0.01 | 0.01 | 89 | 1025.3 |
| 20260506100906 | 62 | 357 | 0.0 | 3.0 | 0.00 | 0.01 | 0.01 | 89 | 1025.3 |
| 20260506095907 | 62 | 1 | 2.0 | 7.0 | 0.00 | 0.01 | 0.01 | 90 | 1025.2 |
| 20260506095407 | 62 | 22 | 4.0 | 6.0 | 0.00 | 0.01 | 0.01 | 90 | 1025.3 |
| 20260506094906 | 62 | 3 | 1.0 | 5.0 | 0.00 | 0.01 | 0.01 | 90 | 1025.2 |
| 20260506094406 | 62 | 356 | 1.0 | 3.0 | 0.00 | 0.01 | 0.01 | 90 | 1025.3 |
| 20260506093906 | 62 | 18 | 2.0 | 3.0 | 0.00 | 0.01 | 0.01 | 90 | 1025.2 |
| 20260506093408 | 62 | 9 | 1.0 | 3.0 | 0.00 | 0.01 | 0.01 | 90 | 1025.2 |
| 20260506092906 | 62 | 2 | 1.0 | 7.0 | 0.00 | 0.01 | 0.01 | 90 | 1025.2 |
| 20260506092406 | 62 | 28 | 1.0 | 5.0 | 0.00 | 0.01 | 0.01 | 90 | 1025.2 |
| 20260506091907 | 62 | 33 | 1.0 | 3.0 | 0.00 | 0.01 | 0.01 | 90 | 1025.2 |
| 20260506091406 | 62 | 350 | 1.0 | 3.0 | 0.00 | 0.01 | 0.01 | 90 | 1025.3 |
| 20260506090905 | 62 | 334 | 0.0 | 2.0 | 0.00 | 0.01 | 0.01 | 90 | 1025.2 |
| 20260506090405 | 62 | 330 | 0.0 | 2.0 | 0.00 | 0.01 | 0.01 | 89 | 1025.3 |
| 20260506085905 | 62 | 17 | 1.0 | 2.0 | 0.00 | 0.01 | 0.01 | 89 | 1025.2 |
| 20260506085405 | 62 | 17 | 1.0 | 1.0 | 0.00 | 0.01 | 0.01 | 89 | 1025.2 |
| 20260506084406 | 62 | 18 | 1.0 | 1.0 | 0.00 | 0.01 | 0.01 | 89 | 1025.2 |
| 20260506083907 | 62 | 18 | 2.0 | 3.0 | 0.00 | 0.01 | 0.01 | 89 | 1025.2 |
| 20260506083407 | 62 | 353 | 1.0 | 3.0 | 0.00 | 0.01 | 0.01 | 89 | 1025.2 |
| 20260506082907 | 62 | 12 | 2.0 | 3.0 | 0.00 | 0.01 | 0.01 | 89 | 1025.2 |
| 20260506082406 | 62 | 23 | 2.0 | 3.0 | 0.00 | 0.01 | 0.01 | 89 | 1025.3 |
| 20260506081906 | 62 | 355 | 3.0 | 7.0 | 0.00 | 0.01 | 0.01 | 89 | 1025.3 |
| 20260506080906 | 62 | 5 | 3.0 | 8.0 | 0.00 | 0.01 | 0.01 | 89 | 1025.4 |
| 20260506080406 | 62 | 13 | 3.0 | 8.0 | 0.00 | 0.01 | 0.01 | 89 | 1025.3 |
| 20260506073408 | 62 | 2 | 1.0 | 5.0 | 0.00 | 0.01 | 0.01 | 90 | 1025.4 |
| 20260506072906 | 62 | 8 | 4.0 | 10.0 | 0.00 | 0.01 | 0.01 | 90 | 1025.5 |
| 20260506071907 | 62 | 349 | 3.0 | 8.0 | 0.00 | 0.01 | 0.01 | 90 | 1025.4 |
| 20260506071406 | 62 | 1 | 2.0 | 5.0 | 0.00 | 0.01 | 0.01 | 90 | 1025.5 |
| 20260506070906 | 62 | 16 | 1.0 | 7.0 | 0.00 | 0.01 | 0.01 | 90 | 1025.5 |
| 20260506062406 | 62 | 16 | 1.0 | 3.0 | 0.00 | 0.01 | 0.01 | 89 | 1025.4 |
| 20260506061905 | 62 | 0 | 2.0 | 5.0 | 0.00 | 0.01 | 0.01 | 89 | 1025.4 |
| 20260506061406 | 62 | 358 | 2.0 | 6.0 | 0.00 | 0.01 | 0.01 | 89 | 1025.5 |
| 20260506060405 | 62 | 25 | 1.0 | 5.0 | 0.00 | 0.01 | 0.01 | 89 | 1025.5 |
| 20260506051405 | 63 | 3 | 2.0 | 3.0 | 0.00 | 0.01 | 0.01 | 88 | 1025.5 |
| 20260506050905 | 63 | 355 | 2.0 | 8.0 | 0.00 | 0.01 | 0.01 | 88 | 1025.5 |
| 20260506050406 | 63 | 347 | 3.0 | 8.0 | 0.00 | 0.01 | 0.01 | 88 | 1025.5 |
| 20260506044905 | 63 | 352 | 3.0 | 9.0 | 0.00 | 0.01 | 0.01 | 88 | 1025.5 |
| 20260506044406 | 63 | 356 | 3.0 | 7.0 | 0.00 | 0.01 | 0.01 | 88 | 1025.5 |
| 20260506043905 | 63 | 352 | 3.0 | 9.0 | 0.00 | 0.01 | 0.01 | 88 | 1025.6 |
| 20260506042905 | 63 | 342 | 4.0 | 9.0 | 0.00 | 0.01 | 0.01 | 87 | 1025.6 |
| 20260506042405 | 63 | 341 | 3.0 | 7.0 | 0.00 | 0.01 | 0.01 | 87 | 1025.6 |
| 20260506041405 | 63 | 331 | 2.0 | 6.0 | 0.00 | 0.01 | 0.01 | 88 | 1025.5 |
| 20260506040905 | 63 | 348 | 3.0 | 9.0 | 0.00 | 0.01 | 0.01 | 88 | 1025.5 |
| 20260506040406 | 63 | 350 | 3.0 | 8.0 | 0.00 | 0.01 | 0.01 | 88 | 1025.5 |
| 20260506035906 | 63 | 0 | 4.0 | 10.0 | 0.00 | 0.01 | 0.01 | 88 | 1025.5 |
| 20260506035405 | 63 | 348 | 6.0 | 12.0 | 0.00 | 0.01 | 0.01 | 88 | 1025.5 |
| 20260506034905 | 63 | 350 | 2.0 | 9.0 | 0.00 | 0.01 | 0.01 | 88 | 1025.6 |
| 20260506034405 | 63 | 352 | 5.0 | 12.0 | 0.00 | 0.01 | 0.01 | 88 | 1025.6 |
| 20260506033905 | 63 | 346 | 6.0 | 10.0 | 0.00 | 0.01 | 0.01 | 88 | 1025.6 |
| 20260506033405 | 63 | 357 | 3.0 | 9.0 | 0.00 | 0.01 | 0.01 | 88 | 1025.6 |
| 20260506032405 | 63 | 353 | 3.0 | 9.0 | 0.00 | 0.01 | 0.01 | 88 | 1025.7 |
| 20260506031906 | 63 | 336 | 5.0 | 10.0 | 0.00 | 0.01 | 0.01 | 88 | 1025.7 |
| 20260506031405 | 63 | 349 | 3.0 | 8.0 | 0.00 | 0.01 | 0.01 | 88 | 1025.7 |
| 20260506030406 | 63 | 325 | 3.0 | 9.0 | 0.00 | 0.01 | 0.01 | 88 | 1025.8 |
| 20260506025905 | 63 | 349 | 3.0 | 5.0 | 0.00 | 0.01 | 0.01 | 87 | 1025.8 |
| 20260506025405 | 63 | 347 | 2.0 | 6.0 | 0.00 | 0.01 | 0.01 | 87 | 1025.7 |
| 20260506024905 | 63 | 359 | 3.0 | 8.0 | 0.00 | 0.01 | 0.01 | 87 | 1025.7 |
| 20260506024405 | 64 | 327 | 1.0 | 8.0 | 0.00 | 0.01 | 0.01 | 87 | 1025.7 |
| 20260506023905 | 64 | 356 | 1.0 | 3.0 | 0.00 | 0.01 | 0.01 | 87 | 1025.7 |
| 20260506023405 | 64 | 346 | 1.0 | 3.0 | 0.00 | 0.01 | 0.01 | 87 | 1025.8 |
| 20260506022906 | 64 | 341 | 0.0 | 1.0 | 0.00 | 0.01 | 0.01 | 87 | 1025.7 |
| 20260506022405 | 64 | 351 | 1.0 | 2.0 | 0.00 | 0.01 | 0.01 | 87 | 1025.8 |
| 20260506021905 | 64 | 317 | 1.0 | 3.0 | 0.00 | 0.01 | 0.01 | 87 | 1025.8 |
| 20260506021406 | 64 | 353 | 1.0 | 3.0 | 0.00 | 0.01 | 0.01 | 87 | 1025.8 |
| 20260506020905 | 64 | 358 | 1.0 | 3.0 | 0.00 | 0.01 | 0.01 | 86 | 1025.8 |
| 20260506020405 | 64 | 353 | 2.0 | 3.0 | 0.00 | 0.01 | 0.01 | 86 | 1025.9 |
| 20260506015905 | 64 | 340 | 2.0 | 3.0 | 0.00 | 0.01 | 0.01 | 86 | 1025.9 |
| 20260506015405 | 64 | 339 | 1.0 | 3.0 | 0.00 | 0.01 | 0.01 | 85 | 1025.9 |
| 20260506014906 | 64 | 338 | 1.0 | 3.0 | 0.00 | 0.01 | 0.01 | 84 | 1025.9 |
| 20260506014405 | 65 | 332 | 1.0 | 5.0 | 0.00 | 0.01 | 0.01 | 84 | 1026.0 |
| 20260506013905 | 65 | 306 | 1.0 | 3.0 | 0.00 | 0.01 | 0.01 | 84 | 1026.0 |
| 20260506013405 | 65 | 275 | 1.0 | 3.0 | 0.00 | 0.01 | 0.01 | 83 | 1026.1 |
| 20260506012905 | 65 | 206 | 1.0 | 3.0 | 0.00 | 0.01 | 0.01 | 84 | 1026.1 |
| 20260506012405 | 65 | 292 | 1.0 | 3.0 | 0.00 | 0.01 | 0.01 | 84 | 1026.2 |
| 20260506011905 | 65 | 329 | 1.0 | 3.0 | 0.00 | 0.01 | 0.01 | 84 | 1026.2 |
| 20260506010405 | 64 | 237 | 1.0 | 2.0 | 0.00 | 0.01 | 0.01 | 85 | 1026.3 |
| 20260506005905 | 64 | 359 | 2.0 | 3.0 | 0.00 | 0.01 | 0.01 | 84 | 1026.4 |
| 20260506005406 | 64 | 353 | 1.0 | 3.0 | 0.00 | 0.01 | 0.01 | 84 | 1026.5 |
| 20260506004910 | 64 | 318 | 2.0 | 5.0 | 0.00 | 0.01 | 0.01 | 84 | 1026.5 |
| 20260506004406 | 64 | 359 | 1.0 | 5.0 | 0.00 | 0.01 | 0.01 | 84 | 1026.6 |
| 20260506003906 | 64 | 320 | 2.0 | 3.0 | 0.00 | 0.01 | 0.01 | 84 | 1026.7 |
| 20260506003407 | 64 | 294 | 1.0 | 3.0 | 0.00 | 0.01 | 0.01 | 84 | 1026.7 |
| 20260506002907 | 64 | 302 | 1.0 | 2.0 | 0.00 | 0.01 | 0.01 | 84 | 1026.7 |
| 20260506002406 | 64 | 354 | 1.0 | 3.0 | 0.00 | 0.01 | 0.01 | 84 | 1026.8 |
| 20260506001407 | 64 | 355 | 1.0 | 2.0 | 0.00 | 0.01 | 0.01 | 83 | 1026.9 |
| 20260506000905 | 64 | 359 | 1.0 | 2.0 | 0.00 | 0.01 | 0.01 | 82 | 1026.9 |
| 20260506000406 | 65 | 322 | 1.0 | 3.0 | 0.00 | 0.01 | 0.01 | 82 | 1027.0 |
| 20260505235905 | 64 | 227 | 0.0 | 2.0 | 0.00 | 0.01 | 0.01 | 83 | 1027.0 |
| 20260505235406 | 64 | 218 | 1.0 | 2.0 | 0.00 | 0.01 | 0.01 | 82 | 1027.1 |